Location: Conflandey
(47.7287°N, 6.0456°E)
Time: 04:02:04
(UTC+00:00)

CSL-04 Debris - Pass Details

Date: 24 October 2021
Orbit: 827 x 847 km, 98.9° (Epoch: 05 December)

Event Time Altitude Azimuth Distance (km) Brightness Sun altitude
Exits shadow 18:44:17 36° 152° (SSE) 1,296 4.8 -23.0°
Maximum altitude 18:46:34 77° 73° (ENE) 858 4.0 -23.4°
Drops below altitude 10° 18:52:00 10° 348° (NNW) 2,457 6.8 -24.3°
Sets 18:54:23 0° 347° (NNW) 3,399 7.6 -24.7°
